Location: Bussy-Saint-Georges
(48.8410°N, 2.7017°E)
Time: 15:28:42
(UTC+00:00)

YAOGAN 1 - Pass Details

Date: 18 October 2021
Orbit: 618 x 620 km, 97.9° (Epoch: 29 November)

Event Time Altitude Azimuth Distance (km) Brightness Sun altitude
Rises 18:37:17 0° 170° (S) 2,885 5.8 -17.8°
Reaches altitude 10° 18:39:28 10° 172° (S) 1,983 5.0 -18.1°
Maximum altitude 18:43:47 73° 258° (WSW) 652 2.7 -18.9°
Drops below altitude 10° 18:48:08 10° 343° (NNW) 2,000 5.5 -19.6°
Sets 18:50:20 0° 345° (NNW) 2,911 6.3 -19.9°
